Location: Beneden-Haastrecht
(52.0012°N, 4.7557°E)
Time: 12:10:34
(UTC+00:00)

Cosmos 2056 Rocket - Pass Details

Date: 24 October 2020
Orbit: 742 x 800 km, 74.0° (Epoch: 24 November)

Event Time Altitude Azimuth Distance (km) Brightness Sun altitude
Rises 16:53:17 0° 214° (SW) 3,209 7.6 -4.7°
Reaches altitude 10° 16:55:42 10° 218° (SW) 2,280 6.8 -5.0°
Maximum altitude 17:00:48 61° 299° (WNW) 850 4.1 -5.8°
Drops below altitude 10° 17:05:54 10° 20° (NNE) 2,271 5.7 -6.6°
Sets 17:08:17 0° 24° (NNE) 3,196 6.4 -6.9°
